This is the latest recevied weather packets stored in our database for station/object N0EDB-13. If no packets are shown the sender has not sent any weather packets the latest 10 day(s).
| Time | Temp. | Humidity | Pressure | Rain* | Wind** | Luminosity | Snow |
|---|---|---|---|---|---|---|---|
| 1777836082 | 24.44° C | 16% | 1459.4 hPa | 0 mm | - | 999 W/m² | - |
| 1777835780 | 24.44° C | 17% | 1459.3 hPa | 0 mm | - | 999 W/m² | - |
| 1777835480 | 24.44° C | 17% | 1458.6 hPa | 0 mm | - | 999 W/m² | - |
| 1777835180 | 24.44° C | 16% | 1459.3 hPa | 0 mm | - | 999 W/m² | - |
| 1777834879 | 23.89° C | 17% | 1460.7 hPa | 0 mm | - | 999 W/m² | - |
| 1777834578 | 23.89° C | 17% | 1460.6 hPa | 0 mm | - | 826 W/m² | - |
| 1777834278 | 24.44° C | 17% | 1460 hPa | 0 mm | - | 999 W/m² | - |
| 1777833977 | 23.89° C | 18% | 1461.2 hPa | 0 mm | - | 999 W/m² | - |
| 1777833677 | 23.33° C | 17% | 1462.3 hPa | 0 mm | - | 999 W/m² | - |
| 1777833376 | 23.33° C | 18% | 1463.5 hPa | 0 mm | - | 800 W/m² | - |
| 1777833075 | 23.33° C | 18% | 1463.9 hPa | 0 mm | - | 897 W/m² | - |
| 1777832775 | 22.78° C | 18% | 1464.5 hPa | 0 mm | - | 740 W/m² | - |
| 1777832474 | 22.78° C | 19% | 1465.3 hPa | 0 mm | - | 603 W/m² | - |
| 1777832173 | 22.22° C | 18% | 1466.1 hPa | 0 mm | - | 638 W/m² | - |
| 1777831873 | 22.22° C | 18% | 1466.1 hPa | 0 mm | - | 604 W/m² | - |
| 1777831572 | 22.22° C | 18% | 1466.9 hPa | 0 mm | - | 703 W/m² | - |
| 1777831271 | 22.22° C | 18% | 1467.2 hPa | 0 mm | - | 513 W/m² | - |
| 1777830970 | 22.22° C | 18% | 1467.5 hPa | 0 mm | - | 499 W/m² | - |
| 1777830669 | 22.22° C | 18% | 1467.8 hPa | 0 mm | - | 508 W/m² | - |
| 1777830369 | 22.22° C | 18% | 1467.9 hPa | 0 mm | - | 494 W/m² | - |
| 1777830068 | 22.22° C | 18% | 1468.1 hPa | 0 mm | - | 463 W/m² | - |
| 1777829767 | 22.22° C | 18% | 1468.3 hPa | 0 mm | - | 421 W/m² | - |
| 1777829466 | 22.22° C | 19% | 1468.2 hPa | 0 mm | - | 402 W/m² | - |
| 1777829165 | 22.22° C | 19% | 1468.2 hPa | 0 mm | - | 393 W/m² | - |
| 1777828865 | 22.22° C | 20% | 1468.1 hPa | 0 mm | - | 401 W/m² | - |
* Rain latest hour (hover to see other rain measurements)
** Current wind speed in m/s (hover to see current wind gust speed)